GFSNIL_prec_cthk_000.txt.gz
RH
69 68 69 72 76 77 79 80 82 85 85 80 81 84 79 74 70 65 62 56 54 54
73 72 72 75 79 82 82 84 87 90 86 89 83 79 76 71 65 60 56 53 50 47
72 75 78 81 85 86 90 92 93 91 92 85 80 77 73 69 61 54 49 45 42 41
70 74 79 84 85 93 95 95 96 93 84 81 79 73 66 59 54 47 41 38 36 34
69 74 75 78 88 92 94 95 89 85 85 80 74 65 57 48 42 40 37 34 33 31
69 72 76 83 88 95 94 90 87 86 83 73 61 49 39 37 32 30 31 32 32 33
69 77 88 90 94 94 90 88 88 85 72 57 41 32 29 32 35 37 37 38 38 37
81 86 94 95 93 90 89 89 80 62 44 29 27 28 35 39 38 37 37 38 38 40
91 92 94 94 90 90 85 68 45 30 27 26 29 34 37 40 41 43 43 48 59 68
97 96 93 91 91 84 64 37 28 25 26 31 35 38 43 48 50 55 66 73 80 83
94 92 92 88 83 62 35 28 24 27 34 37 37 43 50 58 68 75 79 83 85 86
90 86 82 76 49 31 27 25 30 35 38 38 46 56 70 77 79 83 87 88 91 94
81 79 66 43 30 26 27 31 34 37 41 51 60 75 79 82 86 88 90 91 93 95
74 57 40 31 28 29 31 34 38 44 49 61 78 81 88 94 95 96 93 94 96 97

GFSNIL_prec_cthk_003.txt.gz
RH
70 72 73 74 71 69 70 73 78 85 90 91 88 90 92 93 83 79 75 71 68 62
61 61 64 67 68 70 73 77 82 86 89 87 92 96 88 84 79 76 69 65 62 58
58 60 64 70 72 76 83 88 92 96 96 96 92 89 86 82 75 70 66 60 55 51
55 59 62 67 74 82 92 93 91 93 92 91 90 87 83 76 69 64 55 50 45 42
53 54 60 70 76 82 87 85 90 91 90 88 87 83 76 67 56 46 41 38 36 32
51 60 67 68 73 80 84 88 87 85 84 81 71 61 50 40 35 30 27 27 29 29
60 66 67 71 77 83 85 82 81 78 70 56 46 37 31 28 29 30 32 35 38 38
69 71 72 76 82 86 83 84 81 69 54 38 29 27 30 34 37 39 38 38 40 41
82 85 88 92 90 89 88 84 68 47 29 26 27 32 36 38 39 40 42 44 47 54
90 98 94 91 89 88 81 61 36 26 24 26 31 36 40 42 46 50 59 67 68 70
93 92 88 89 86 80 54 35 26 24 28 33 38 40 43 50 57 70 74 75 78 81
87 88 88 84 75 49 36 26 26 28 33 36 36 45 53 64 76 79 80 83 86 85
89 89 85 61 47 38 31 30 29 31 35 41 45 53 64 82 86 87 87 90 91 93
87 71 56 47 43 35 32 30 30 34 40 42 52 63 83 91 93 92 90 91 92 95

GFSNIL_prec_cthk_006.txt.gz
RH
59 59 58 58 56 55 65 70 73 74 73 79 88 88 97 91 98 98 89 80 81 77
56 55 56 54 51 50 54 62 69 78 90 92 98 97 94 93 90 87 84 79 75 72
54 53 53 51 52 57 61 69 78 89 94 97 95 93 91 88 85 81 77 73 70 66
53 52 51 55 61 65 69 76 86 83 86 88 87 85 84 81 78 75 70 65 61 53
51 53 58 61 66 71 74 75 79 82 84 78 75 73 70 66 59 53 48 42 38 35
55 55 58 62 71 73 75 78 85 81 77 75 72 64 55 47 42 37 32 26 23 23
54 60 61 68 71 78 84 89 85 80 78 70 57 48 41 33 26 24 26 29 32 34
61 67 71 76 78 87 93 86 83 79 70 60 51 34 25 26 28 30 31 33 34 35
72 80 85 89 94 93 92 90 87 72 55 40 28 25 27 31 33 35 35 35 39 45
84 86 90 88 88 89 88 83 69 51 38 27 26 28 31 35 35 36 39 49 62 68
85 91 89 85 84 88 82 64 46 37 30 27 27 29 33 34 36 42 56 70 75 77
87 93 91 89 80 69 55 44 38 32 29 27 28 33 35 39 45 59 75 82 86 86
93 88 81 75 63 53 46 41 34 31 29 30 31 32 39 49 69 80 83 86 87 90
83 74 64 56 53 48 42 36 33 30 31 32 30 37 48 74 85 85 86 87 88 93

GFSNIL_prec_cthk_009.txt.gz
RH
57 55 53 51 48 46 44 44 46 50 60 69 74 87 78 82 90 97 97 97 94 90
51 49 46 46 46 44 44 46 52 58 65 70 78 82 93 98 98 97 94 91 87 84
45 41 41 42 45 48 53 56 60 66 72 82 86 86 88 86 86 87 86 84 81 76
40 38 40 45 47 52 56 61 67 73 79 76 76 76 78 75 73 72 69 64 59 57
41 40 42 43 45 55 64 74 76 71 71 74 78 78 74 69 65 59 53 49 47 45
40 39 43 52 59 61 74 81 83 86 87 88 83 78 72 65 57 49 45 41 35 31
49 53 62 68 70 73 82 90 92 90 87 84 76 67 62 56 47 38 31 26 26 27
63 60 67 72 78 83 92 95 92 89 86 81 73 63 52 44 35 31 27 26 27 28
68 72 82 88 88 95 97 98 96 92 85 76 57 49 41 36 30 25 24 24 26 29
82 77 84 90 94 92 93 92 86 80 68 50 44 39 33 27 24 24 26 30 33 40
80 79 81 92 91 85 82 76 67 55 49 44 39 32 28 25 23 25 30 38 56 70
86 83 84 83 79 75 70 63 56 51 44 39 32 29 26 24 25 30 41 69 80 81
87 84 76 69 65 61 57 53 47 42 38 33 30 28 28 30 32 45 71 83 84 87
77 65 60 58 56 53 48 43 40 37 32 31 31 30 33 33 47 71 87 87 88 91

GFSNIL_prec_cthk_012.txt.gz
RH
59 57 56 47 43 41 42 35 32 32 35 39 44 53 60 67 75 80 96 91 95 97
63 56 50 49 46 43 42 42 41 47 52 59 60 66 73 79 89 90 86 87 94 95
56 53 49 46 43 45 48 49 52 59 61 66 69 72 76 78 74 73 82 88 86 81
59 51 43 38 40 43 46 50 53 60 70 72 71 70 72 75 80 79 75 69 64 60
57 53 53 47 40 45 51 58 66 74 81 81 82 85 85 82 79 75 70 65 57 53
57 55 56 51 51 55 62 71 79 83 87 89 90 88 86 82 77 70 62 55 52 48
60 57 55 55 54 63 73 80 89 93 97 95 93 90 81 77 68 56 51 48 44 39
62 62 59 61 63 73 84 93 98 98 99 97 95 88 79 62 54 50 44 38 34 30
65 64 67 73 80 87 96 96 95 90 86 84 76 66 61 56 50 43 38 32 26 23
73 68 77 81 84 90 92 88 84 80 72 66 62 57 51 47 40 35 29 24 23 27
79 72 77 82 83 79 75 70 67 64 60 58 55 52 45 38 31 26 26 27 31 42
69 71 77 70 64 62 60 59 58 56 54 49 42 36 32 30 27 26 29 34 48 66
77 72 61 58 57 57 55 50 41 36 39 40 40 38 35 34 31 32 36 49 73 86
74 64 60 57 52 40 36 34 37 37 40 46 48 44 42 40 40 40 48 78 88 91

GFSNIL_prec_cthk_015.txt.gz
RH
68 64 62 58 60 58 56 56 53 49 46 48 46 48 50 53 57 64 69 74 79 84
58 59 56 58 58 53 47 49 49 50 54 57 60 63 66 63 67 70 75 81 86 93
59 61 64 54 48 47 50 56 59 63 63 67 72 73 72 71 72 74 76 77 76 75
65 62 53 52 54 51 51 55 58 63 67 73 80 85 86 86 88 87 84 81 78 71
59 57 51 47 52 57 62 60 65 68 72 83 88 91 95 93 92 89 84 79 72 64
57 54 58 60 61 62 61 67 71 75 82 90 97 97 95 93 92 89 83 67 55 55
59 60 63 64 65 66 69 78 82 87 93 94 92 93 90 85 81 73 64 59 55 54
67 71 70 67 70 76 85 88 90 91 92 89 87 83 77 70 64 60 56 53 49 47
68 68 64 68 67 74 76 81 81 78 74 69 66 64 61 58 58 57 53 52 47 38
55 56 63 69 72 71 62 60 59 59 57 57 56 55 53 52 49 45 42 40 36 35
62 68 70 70 67 61 59 58 57 54 47 42 39 38 37 38 36 38 38 34 34 36
71 74 72 68 63 60 51 40 35 35 32 35 37 38 39 39 42 41 39 38 38 44
73 71 69 64 48 35 33 34 34 33 39 44 47 51 50 47 46 43 43 42 45 55
78 74 57 38 35 33 35 35 38 45 53 60 61 58 54 52 54 52 49 48 54 78

GFSNIL_prec_cthk_018.txt.gz
RH
57 57 55 53 53 51 54 51 49 47 49 48 53 57 53 53 54 54 59 57 60 66
56 56 58 57 56 54 52 52 51 53 58 59 61 66 71 74 75 67 69 70 71 74
61 62 62 57 53 48 50 55 60 67 69 71 73 73 76 79 80 84 86 90 94 94
58 57 51 52 49 51 60 64 69 74 74 72 74 81 84 89 95 98 97 97 95 92
47 48 49 51 59 61 65 67 69 68 72 76 84 89 93 96 96 96 95 92 93 89
48 50 51 53 65 69 69 66 71 76 80 86 92 98 98 97 95 93 89 85 78 69
53 52 52 62 66 67 70 74 80 87 93 90 89 87 86 86 86 83 78 72 68 65
41 44 51 58 66 71 72 74 73 68 67 67 66 64 59 60 62 62 61 61 61 60
46 51 60 66 70 71 70 70 65 63 60 57 56 50 45 43 44 46 47 51 51 50
53 59 65 70 73 70 67 64 58 46 40 38 38 33 31 31 33 36 38 45 45 44
58 64 69 68 71 67 58 39 34 37 39 39 39 37 39 39 42 47 49 50 48 47
64 68 72 75 68 45 35 34 38 38 40 44 50 52 51 47 49 48 47 46 48 50
64 73 78 68 43 40 41 39 41 45 52 56 58 58 56 55 54 53 54 55 57 55
74 80 66 47 43 44 41 42 47 51 57 59 60 63 68 67 66 65 64 64 61 60

GFSNIL_prec_cthk_021.txt.gz
RH
63 62 60 56 56 53 50 49 52 54 55 54 60 62 64 62 61 67 71 69 73 75
64 64 59 56 53 48 46 46 47 50 53 58 63 68 68 69 71 67 65 66 71 76
66 64 59 53 54 51 50 50 45 49 56 59 62 69 74 77 76 81 83 87 87 91
61 60 56 53 51 52 49 50 48 53 61 61 66 71 77 82 87 91 94 96 97 96
54 58 59 54 48 47 47 50 56 63 69 77 81 84 90 92 94 97 97 97 98 96
62 54 46 45 41 47 55 57 64 76 83 90 94 91 83 87 86 84 86 85 87 84
48 43 42 45 49 52 56 64 71 77 79 76 71 68 67 65 58 60 62 64 67 68
48 46 49 52 55 58 64 71 73 75 73 66 56 52 40 38 36 34 33 35 38 43
48 50 56 56 58 61 65 68 70 59 48 46 45 45 38 35 32 32 35 40 41 46
49 55 56 57 59 64 70 68 51 48 47 47 46 45 39 41 45 46 48 52 56 54
54 58 58 60 66 74 66 53 53 52 48 47 53 54 49 51 51 50 54 57 61 62
61 61 63 68 76 69 60 58 56 48 50 52 55 60 55 55 55 57 64 69 69 68
64 67 67 75 77 63 59 57 47 47 53 55 59 70 75 76 75 74 75 75 74 70
77 79 75 81 84 59 58 54 53 55 58 68 78 80 77 78 78 79 83 84 79 74

GFSNIL_prec_cthk_024.txt.gz
RH
63 62 63 61 58 57 50 48 48 51 50 51 51 47 45 52 51 56 60 61 60 63
59 61 56 53 52 48 45 42 44 42 45 44 47 47 59 59 59 64 68 74 76 78
59 56 52 48 42 41 39 37 38 42 42 49 56 60 61 65 69 73 77 84 88 90
53 50 52 47 43 39 37 35 39 47 55 63 69 74 77 77 80 78 78 86 96 96
54 47 44 44 37 36 34 39 47 56 60 64 71 79 86 85 80 75 67 63 67 75
47 45 43 39 36 36 39 44 49 55 60 64 70 73 70 60 53 47 41 37 40 45
53 48 46 38 40 45 52 54 55 58 63 66 60 48 46 46 41 39 36 31 31 32
52 53 52 47 46 54 57 57 57 63 63 51 47 50 51 45 43 41 35 32 34 38
56 61 64 53 51 54 54 58 64 60 52 52 52 50 44 42 44 48 48 47 46 51
69 58 55 49 52 56 57 66 63 54 54 52 50 49 48 50 55 59 59 58 57 55
79 80 62 58 62 59 64 73 75 57 54 50 51 56 58 61 68 70 69 70 72 71
95 96 80 67 80 75 73 85 76 56 55 53 54 59 67 73 74 71 71 73 75 80
75 83 88 83 95 89 86 91 58 49 50 55 59 67 74 77 81 83 86 86 87 91
59 72 91 93 97 86 94 64 51 47 51 55 61 68 77 86 91 91 87 91 97 94

GFSNIL_prec_cthk_027.txt.gz
RH
53 55 56 58 58 55 45 37 35 37 35 35 35 37 40 45 53 64 59 59 62 65
59 58 58 56 51 38 36 38 39 36 36 39 40 44 47 54 59 63 66 71 76 80
58 56 52 41 37 40 42 40 36 34 37 44 50 52 55 58 62 69 73 76 78 81
57 47 40 41 45 44 35 32 37 43 43 45 50 57 62 70 70 74 76 73 67 56
44 39 39 35 35 40 38 38 41 44 49 53 54 56 61 62 60 50 47 50 51 44
42 38 35 32 35 40 45 37 38 45 50 54 58 58 53 48 47 50 52 52 49 46
53 51 49 48 58 65 54 47 49 47 51 55 46 46 46 49 48 47 46 46 44 41
52 56 60 68 67 84 74 63 66 54 59 63 50 47 46 45 46 46 47 49 52 52
61 66 79 89 87 97 87 74 74 69 68 72 58 50 50 50 50 52 55 57 60 62
54 57 70 85 93 97 92 78 82 73 76 75 58 57 56 53 52 58 65 70 67 64
52 62 79 89 88 94 92 91 80 81 82 71 59 58 56 54 60 68 77 82 85 83
42 51 63 79 77 93 98 86 83 87 74 56 56 54 54 52 64 81 86 89 88 86
49 52 57 65 76 87 89 81 90 61 50 52 52 54 51 56 77 83 88 87 88 95
54 62 69 81 97 94 89 87 53 46 52 52 53 53 51 67 77 82 83 87 94 97

GFSNIL_prec_cthk_030.txt.gz
RH
51 55 58 57 54 50 42 36 35 36 36 33 31 33 36 41 44 48 52 55 60 63
57 59 61 52 40 36 35 38 34 26 29 29 30 35 38 42 46 48 53 58 63 67
58 55 51 44 36 33 33 34 30 30 30 32 35 38 40 42 47 50 54 62 67 69
48 42 37 41 40 33 38 41 40 42 43 39 46 46 46 43 45 52 50 47 48 50
43 44 39 39 40 41 51 65 65 67 66 66 64 65 61 56 47 44 45 49 54 55
45 48 51 49 48 55 59 85 90 90 82 77 74 72 61 57 47 46 49 50 49 46
49 55 63 72 68 60 75 81 96 89 90 83 79 70 55 60 51 47 48 49 49 50
57 57 50 51 54 66 75 82 96 93 91 87 80 74 64 62 49 50 49 48 50 55
47 40 34 31 34 42 65 96 94 94 91 85 80 74 69 50 51 48 48 48 56 69
26 32 39 36 38 42 55 68 81 96 96 83 80 74 52 48 47 48 47 57 73 76
35 41 44 39 47 58 67 74 90 97 89 82 69 50 48 47 50 46 55 73 79 76
39 43 43 46 54 65 77 90 94 91 83 58 48 47 46 47 45 47 67 78 76 78
46 45 48 55 61 70 81 89 91 83 55 47 47 48 47 45 40 52 72 77 85 93
45 48 56 63 75 83 85 82 68 59 50 48 48 48 46 43 42 66 75 81 92 96

GFSNIL_prec_cthk_033.txt.gz
RH
53 54 54 48 43 34 31 32 35 39 37 31 31 29 30 33 32 35 42 44 47 46
51 48 44 44 38 34 34 35 37 40 41 42 41 40 44 47 48 49 49 50 50 49
42 38 36 38 40 41 42 43 44 50 51 54 61 64 66 71 66 64 60 57 51 43
37 35 35 41 45 47 52 59 55 60 64 64 80 88 88 80 73 68 62 57 52 52
40 41 45 49 51 57 53 59 58 54 69 70 82 91 85 81 69 63 59 54 51 48
40 45 48 49 42 40 33 31 41 46 67 85 94 92 88 77 69 69 61 56 51 49
45 43 41 35 31 32 32 34 36 52 69 86 91 94 86 75 72 65 56 55 51 47
34 28 27 30 33 36 37 34 42 57 69 77 93 97 84 78 75 52 50 48 49 46
28 30 33 33 34 33 35 45 54 65 68 76 86 85 86 74 47 47 48 47 44 45
33 33 32 34 32 33 40 50 61 69 79 83 83 83 62 48 47 48 47 44 44 59
34 30 34 33 35 40 46 56 65 75 81 81 75 52 46 45 46 44 42 40 55 66
34 34 35 35 39 47 58 69 73 72 72 67 55 47 43 43 41 39 40 49 71 76
38 36 37 38 47 56 69 75 73 64 56 49 47 44 44 42 39 40 42 62 77 89
38 40 41 43 56 63 75 67 62 50 48 46 45 46 44 42 41 43 47 67 80 92

GFSNIL_prec_cthk_036.txt.gz
RH
57 51 48 44 37 34 34 34 36 38 41 43 45 43 44 47 51 50 60 58 61 67
51 49 45 40 36 36 38 41 43 43 47 49 48 53 55 64 65 68 67 69 73 73
49 44 41 40 42 43 44 43 41 43 43 43 49 63 67 74 73 73 79 79 74 67
44 43 44 44 46 46 42 40 38 39 40 42 50 53 64 73 82 86 82 70 69 65
47 46 45 45 41 37 37 34 33 34 39 42 43 61 76 83 86 87 80 76 69 50
45 39 36 32 30 30 31 31 31 35 40 44 52 72 72 78 89 91 87 72 54 50
36 32 30 31 30 31 32 31 33 38 43 48 57 62 70 74 80 80 73 55 49 47
33 34 33 32 30 32 32 31 34 41 45 52 61 67 72 74 76 62 47 45 46 44
35 34 34 33 31 33 32 34 37 43 54 60 66 67 69 67 48 44 43 42 38 38
36 34 34 35 35 32 30 36 43 54 63 65 65 67 64 47 44 42 40 36 36 37
33 34 35 35 34 35 34 44 53 63 69 66 59 52 45 43 42 40 37 38 39 43
35 34 35 35 36 38 41 53 61 70 64 55 45 46 44 43 40 36 36 40 42 54
33 36 36 38 38 42 48 59 68 67 56 45 45 44 46 43 38 34 37 42 45 63
37 37 41 40 43 48 55 63 66 61 49 45 44 46 47 43 38 37 40 44 46 63

GFSNIL_prec_cthk_042.txt.gz
RH
70 75 74 63 58 57 59 58 50 49 48 43 41 45 46 50 59 66 62 53 61 66
71 72 65 60 58 58 57 53 49 43 39 38 40 42 46 52 65 63 52 59 63 66
76 66 60 56 59 55 46 41 39 39 39 39 40 42 44 48 50 48 49 58 62 62
67 60 58 57 49 43 41 39 39 39 37 39 41 42 38 47 46 44 57 60 63 66
59 57 53 49 46 44 43 40 39 37 36 41 41 37 38 40 44 51 55 61 62 63
55 50 48 48 47 46 42 39 38 35 37 40 41 42 39 44 55 59 59 60 60 55
49 49 51 51 47 43 40 37 35 34 38 35 40 44 49 54 63 64 59 58 50 47
52 52 54 49 45 42 38 36 35 34 35 34 40 46 56 63 70 59 51 44 44 42
54 55 52 47 45 41 39 40 42 36 35 38 46 50 58 66 53 43 42 44 43 39
54 53 49 47 43 41 41 38 37 36 36 42 51 55 59 44 44 43 44 45 41 37
56 53 50 47 42 40 40 36 37 36 41 50 55 56 52 45 45 46 46 45 40 39
57 53 48 44 40 39 36 37 37 40 47 55 58 54 48 45 45 47 48 44 40 40
54 50 45 41 39 36 40 40 41 44 52 56 57 52 47 46 45 47 50 43 40 43
51 45 42 40 38 40 42 43 44 47 54 58 56 53 50 45 43 51 49 42 39 42

GFSNIL_prec_cthk_045.txt.gz
RH
62 65 66 71 74 63 61 60 56 57 55 49 44 42 45 46 52 51 68 66 67 61
66 68 74 69 60 62 58 51 51 50 48 43 40 40 47 46 52 50 65 55 49 55
73 74 73 61 59 52 49 51 50 48 45 42 41 43 47 47 50 47 57 45 54 62
74 73 63 57 51 49 53 53 50 46 45 43 42 48 49 41 40 46 48 50 58 55
67 62 55 53 50 54 55 52 51 47 45 46 46 49 41 38 40 51 57 55 60 61
64 56 55 53 56 57 56 54 49 48 50 46 46 42 38 42 47 51 58 62 68 62
57 57 56 58 58 61 58 53 54 53 49 44 41 39 42 48 52 56 64 70 64 50
62 58 60 64 65 59 57 53 58 51 50 43 39 39 43 49 57 63 68 57 48 46
58 63 69 68 63 67 60 58 51 48 44 36 41 39 46 51 57 54 47 50 48 47
69 69 66 66 67 59 57 52 50 45 38 38 44 43 49 51 48 43 50 52 49 50
69 72 70 65 59 58 54 51 42 40 40 43 46 47 52 52 46 47 53 51 51 52
76 67 62 58 57 55 51 47 38 39 42 48 50 51 53 52 45 49 53 49 53 51
67 61 59 58 56 53 51 46 43 42 45 48 55 54 54 50 47 52 47 50 56 49
61 58 60 57 54 55 50 43 42 45 50 52 55 58 55 52 50 53 47 50 52 49

GFSNIL_prec_cthk_048.txt.gz
RH
63 64 66 68 70 72 67 60 55 51 47 45 48 47 45 40 39 42 50 50 53 63
63 63 66 71 75 69 57 55 50 46 45 49 49 47 46 47 44 49 48 49 46 59
64 64 70 82 77 73 56 48 47 48 53 53 51 49 50 49 49 42 40 39 44 52
66 67 74 82 79 55 49 48 52 58 57 54 55 53 50 49 48 41 31 36 49 52
71 67 70 84 75 55 52 57 62 61 59 56 52 52 49 46 41 34 40 52 57 56
74 79 69 67 52 55 61 66 64 61 58 52 50 46 41 40 39 43 47 49 54 62
81 64 63 68 60 63 73 67 64 59 55 56 52 48 45 45 43 45 50 56 64 67
68 68 80 65 65 80 72 67 59 56 58 57 54 48 45 46 46 47 51 59 59 47
76 77 67 67 79 73 72 64 57 60 60 52 47 44 43 43 45 47 48 45 44 44
80 71 63 80 77 69 65 60 63 63 61 52 46 44 43 45 49 51 50 45 47 45
77 75 84 76 70 65 66 68 64 58 53 52 48 41 44 49 51 52 48 51 50 47
81 84 76 68 69 69 69 67 60 54 46 44 41 44 49 54 56 54 49 50 47 50
80 76 73 71 71 67 64 63 54 46 42 41 43 45 52 58 57 54 52 52 50 47
77 74 69 66 62 58 55 52 46 42 35 42 46 49 56 60 58 59 58 53 50 49

GFSNIL_prec_cthk_051.txt.gz
RH
60 62 64 66 68 68 70 73 84 76 66 49 44 47 51 53 51 49 48 48 48 46
64 68 70 69 68 67 67 74 82 73 63 52 49 50 54 53 52 50 50 50 50 49
69 72 74 74 71 75 84 72 70 67 50 52 59 57 56 54 53 52 53 52 52 47
80 82 86 75 92 78 92 70 56 59 59 61 61 60 57 54 52 54 54 51 42 48
87 86 84 83 82 78 76 61 68 71 65 66 61 57 53 55 55 50 49 48 49 51
80 83 79 85 71 76 65 65 72 71 68 64 63 56 56 57 52 51 50 49 48 48
77 79 79 74 76 74 70 75 77 74 66 62 62 65 62 60 55 53 49 46 49 48
74 70 77 81 82 75 77 83 72 66 70 66 66 64 63 59 56 51 46 48 51 49
71 74 83 83 83 83 83 73 73 77 67 67 67 65 56 43 42 44 44 46 46 46
75 84 85 80 85 83 77 78 75 69 65 64 57 49 44 39 41 43 48 51 47 44
86 88 86 89 85 80 75 69 66 62 60 53 47 40 37 38 43 48 55 56 50 49
90 93 92 79 76 70 66 62 56 50 45 43 42 36 35 40 46 52 58 60 53 50
92 82 77 72 67 60 55 50 45 41 42 39 36 34 40 44 50 55 59 57 54 53
79 74 68 59 52 47 44 42 40 39 37 37 36 39 45 52 55 54 56 54 53 54